This is the latest recevied weather packets stored in our database for station/object N0QV. If no packets are shown the sender has not sent any weather packets the latest 10 day(s).
| Time | Temp. | Humidity | Pressure | Rain* | Wind** | Luminosity | Snow |
|---|---|---|---|---|---|---|---|
| 1777829371 | 20.56° C | 30% | 1008.5 hPa | 0 mm | - | 707 W/m² | - |
| 1777829068 | 21.11° C | 31% | 1008.3 hPa | 0 mm | - | 712 W/m² | - |
| 1777828765 | 21.11° C | 32% | 1008.3 hPa | 0 mm | - | 702 W/m² | - |
| 1777828462 | 21.11° C | 32% | 1008.5 hPa | 0 mm | - | 719 W/m² | - |
| 1777828159 | 20.56° C | 34% | 1008.6 hPa | 0 mm | - | 748 W/m² | - |
| 1777827855 | 21.11° C | 32% | 1008.6 hPa | 0 mm | - | 743 W/m² | - |
| 1777827552 | 20° C | 33% | 1008.5 hPa | 0 mm | - | 726 W/m² | - |
| 1777827250 | 20.56° C | 32% | 1008.3 hPa | 0 mm | - | 754 W/m² | - |
| 1777826946 | 20.56° C | 35% | 1008.3 hPa | 0 mm | - | 755 W/m² | - |
| 1777826643 | 20.56° C | 35% | 1008.5 hPa | 0 mm | - | 757 W/m² | - |
| 1777826339 | 20.56° C | 35% | 1008.2 hPa | 0 mm | - | 762 W/m² | - |
| 1777826037 | 20.56° C | 34% | 1008.4 hPa | 0 mm | - | 757 W/m² | - |
| 1777825734 | 20.56° C | 35% | 1008.4 hPa | 0 mm | - | 783 W/m² | - |
| 1777825432 | 20.56° C | 34% | 1008.5 hPa | 0 mm | - | 778 W/m² | - |
| 1777825128 | 20.56° C | 36% | 1008.3 hPa | 0 mm | - | 783 W/m² | - |
| 1777824824 | 20° C | 35% | 1008.3 hPa | 0 mm | - | 784 W/m² | - |
| 1777824521 | 20° C | 35% | 1008.3 hPa | 0 mm | - | 789 W/m² | - |
| 1777824218 | 19.44° C | 35% | 1008.4 hPa | 0 mm | - | 762 W/m² | - |
| 1777823913 | 19.44° C | 35% | 1008.4 hPa | 0 mm | - | 711 W/m² | - |
| 1777823611 | 19.44° C | 35% | 1008.3 hPa | 0 mm | - | 738 W/m² | - |
| 1777823308 | 20° C | 35% | 1008.6 hPa | 0 mm | - | 777 W/m² | - |
| 1777823006 | 20° C | 36% | 1008.5 hPa | 0 mm | - | 780 W/m² | - |
| 1777822704 | 19.44° C | 37% | 1008.4 hPa | 0 mm | - | 770 W/m² | - |
| 1777822401 | 18.89° C | 38% | 1008.4 hPa | 0 mm | - | 757 W/m² | - |
| 1777822099 | 18.89° C | 37% | 1008.5 hPa | 0 mm | - | 718 W/m² | - |
* Rain latest hour (hover to see other rain measurements)
** Current wind speed in m/s (hover to see current wind gust speed)